[[{"header":{"parameterUnit":"m.s-1","parameterCategory":2,"la1":30.2991,"la2":30.254,"lo1":-89.0895,"lo2":-89.0444,"dy":0.0017,"dx":0.0017,"nx":28,"ny":28,"refTime":"2025-02-08T09:00:00:Z","depth":"0","parameterNumber":2,"parameterNumberName":"U-component_of_CURRENTS"},"data":[0,0,0,0,0,0,0,0,0,0,0,0,0,0,0,0,0,0,0,0,0,0,0,0,0,0,0,0,0,0,0,0,0,0,0,0,0,0,0,0,0,0,0,0,0,0,0,0,0,0,0,0,0,0,0,0,0,0,0.2653,0.2654,0,0.2717,0.2717,0.2718,0.2723,0.2723,0.2722,0.2722,0.2745,0.2747,0.2748,0,0,0,0,0,0,0,0,0,0,0,0,0,0.2561,0.2562,0.2653,0.2654,0.2655,0.2717,0.2718,0.2718,0.2723,0.2723,0.2722,0.2721,0.2745,0.2746,0.2748,0,0,0,0,0,0,0,0,0,0,0,0,0,0.2609,0.2563,0.2653,0.2665,0.2667,0.2717,0.2718,0.2718,0.2724,0.2723,0.2722,0.2721,0.2745,0.2746,0.2748,0.2777,0,0,0.2754,0.2754,0,0,0,0,0,0,0,0,0.2607,0.2613,0.2663,0.2665,0.2667,0.2712,0.2694,0.2736,0.2724,0.2701,0.2722,0.272,0.2732,0.2735,0.2748,0.2778,0.2779,0.2754,0.2755,0.2756,0.2756,0,0,0,0,0,0,0,0.2603,0.261,0.2677,0.2664,0.2666,0.2677,0.2683,0.2702,0.2719,0.2703,0.2704,0.2713,0.2733,0.2746,0.2748,0.2779,0.2754,0.2755,0.2756,0.2757,0.2852,0.2853,0,0,0,0,0,0,0.2598,0.2607,0.2675,0.2679,0.2635,0.2679,0.2686,0.2698,0.272,0.2723,0.2714,0.2713,0.2743,0.2746,0.2749,0.2806,0.2756,0.2757,0.2758,0.285,0.2852,0.2854,0,0,0,0,0,0,0.2595,0.2603,0.2672,0.2645,0.2655,0.2682,0.2695,0.2699,0.2714,0.2729,0.273,0.2725,0.2743,0.2747,0.278,0.2806,0.2758,0.276,0.2849,0.2851,0.2853,0.2907,0,0,0,0,0,0,0.2593,0.2602,0.2611,0.2645,0.2656,0.2711,0.2697,0.2701,0.2722,0.2722,0.2739,0.274,0.2742,0.2778,0.2782,0.2808,0.2761,0.2847,0.285,0.2852,0.2903,0.2911,0.2917,0,0,0,0,0,0.2589,0.2608,0.2611,0.2619,0.2667,0.2712,0.2719,0.2734,0.2723,0.2741,0.2754,0.274,0.2798,0.2781,0.2785,0.2812,0.2846,0.2849,0.2852,0.29,0.2909,0.2917,0,0,0,0,0,0,0.2571,0.2612,0.2615,0.2644,0.2678,0.2713,0.2733,0.2738,0.2763,0.2761,0.2763,0.2767,0.2806,0.2803,0.2785,0.2848,0.2818,0.2822,0.2853,0.2861,0.2868,0.2875,0.2763,0,0,0,0,0,0.2572,0.2598,0.2635,0.2659,0.2678,0.2704,0.2723,0.2736,0.2761,0.2771,0.2782,0.2798,0.2825,0.2837,0.2858,0.2894,0.2942,0.2913,0.292,0.2926,0.2935,0.3048,0.3066,0.2864,0.2864,0.2864,0,0,0.257,0.2597,0.2611,0.2658,0.2684,0.2719,0.2714,0.2751,0.278,0.277,0.281,0.2824,0.2841,0.2885,0.2901,0.2884,0.3011,0.293,0.2935,0.2941,0.3053,0.3073,0.3091,0.2867,0.2866,0.2866,0,0,0.2584,0.2607,0.2633,0.2666,0.2711,0.2734,0.2744,0.2785,0.2803,0.2846,0.2849,0.288,0.2913,0.2937,0.2951,0.3008,0.3045,0.3011,0.3051,0.3161,0.3179,0.3195,0.3294,0.3319,0.3013,0.3013,0.3013,0,0.2577,0.2617,0.2648,0.2683,0.2711,0.274,0.2773,0.2806,0.285,0.2879,0.2863,0.294,0.2941,0.301,0.3024,0.3024,0.3096,0.3018,0.3172,0.3189,0.3205,0.3303,0.3329,0.3016,0.3015,0.3015,0.3015,0,0.2611,0.2644,0.2666,0.2718,0.2753,0.2791,0.2838,0.2875,0.2894,0.2928,0.2998,0.3017,0.3064,0.3067,0.306,0.3169,0.3188,0.3172,0.3154,0.3229,0.3327,0.3354,0.302,0.3019,0.3018,0.3017,0,0,0.2584,0.2671,0.2676,0.2707,0.2774,0.2807,0.2867,0.2935,0.299,0.3027,0.3109,0.3135,0.3154,0.3172,0.3178,0.3254,0.3416,0.3262,0.3267,0.3365,0.3679,0.362,0.3644,0.3445,0.345,0.3453,0.3707,0,0.2597,0.266,0.2704,0.2765,0.2802,0.2856,0.2916,0.2981,0.3043,0.3134,0.3172,0.3252,0.3195,0.3238,0.3304,0.3405,0.3488,0.3349,0.3586,0.3593,0.3537,0.3673,0.3568,0.3779,0.3733,0.3737,0.3741,0,0.2607,0.2652,0.2707,0.2799,0.2821,0.2863,0.297,0.3035,0.3165,0.3219,0.3301,0.3354,0.347,0.3413,0.3618,0.3544,0.3612,0.3672,0.3683,0.3627,0.3585,0.3693,0.3829,0.3714,0.3782,0.3779,0.3776,0,0.2567,0.2654,0.2696,0.2725,0.2831,0.287,0.2935,0.3054,0.3138,0.3296,0.3386,0.351,0.3605,0.3719,0.3805,0.3756,0.4037,0.3987,0.3995,0.3992,0.3945,0.3928,0.3997,0.4137,0.4136,0.4136,0.4135,0,0.2562,0.2598,0.268,0.2707,0.2783,0.2856,0.2962,0.305,0.3201,0.3317,0.3431,0.3545,0.3693,0.3847,0.3904,0.4044,0.4124,0.4044,0.407,0.3958,0.3941,0.3867,0.3802,0.4145,0.4143,0.4141,0.414,0,0.2522,0.257,0.263,0.2729,0.2767,0.2823,0.2978,0.3057,0.3208,0.3374,0.3439,0.3644,0.3842,0.3968,0.418,0.4177,0.4204,0.4319,0.4167,0.4167,0.4031,0.3973,0.395,0.3831,0.4411,0.4411,0.4411,0,0.2512,0.2534,0.2635,0.2677,0.2725,0.2822,0.289,0.3041,0.3134,0.3411,0.3486,0.3738,0.3876,0.417,0.4247,0.4394,0.4224,0.4348,0.4206,0.4046,0.4004,0.3814,0.37,0.4186,0.4185,0.4183,0.4182,0,0.2515,0.2543,0.2604,0.2669,0.2731,0.281,0.292,0.2996,0.318,0.3315,0.3506,0.3656,0.3946,0.4062,0.4252,0.4307,0.4141,0.4322,0.4224,0.3896,0.3635,0.3523,0.3986,0.4171,0.4172,0.4173,0.4173,0.4174,0.2536,0.2551,0.2619,0.2678,0.2734,0.2782,0.2812,0.2928,0.3052,0.3227,0.3426,0.3589,0.386,0.4117,0.4137,0.4114,0.4056,0.403,0.4002,0.3845,0.3624,0.4042,0.4191,0.4192,0.4193,0.4194,0.4195,0,0.2547,0.2563,0.2625,0.2669,0.2681,0.2731,0.281,0.2811,0.288,0.3081,0.3226,0.3494,0.367,0.3832,0.3942,0.3825,0.3642,0.3732,0.3458,0.3381,0.3851,0.3729,0.3702,0.3702,0.3702,0.3703,0.3703,0.3703,0.2561,0.2594,0.2599,0.2609,0.2617,0.2582,0.259,0.2605,0.2701,0.2821,0.2944,0.3138,0.3476,0.3744,0.3691,0.3597,0.3281,0.3181,0.3119,0.347,0.3494,0.3517,0.3386,0.3288,0.3287,0.252,0.2514,0.251]},{"header":{"parameterUnit":"m.s-1","parameterCategory":2,"la1":30.2991,"la2":30.254,"lo1":-89.0895,"lo2":-89.0444,"dy":0.0017,"dx":0.0017,"nx":28,"ny":28,"refTime":"2025-02-08T09:00:00:Z","depth":"0","parameterNumber":3,"parameterNumberName":"V-component_of_CURRENTS"},"data":[0,0,0,0,0,0,0,0,0,0,0,0,0,0,0,0,0,0,0,0,0,0,0,0,0,0,0,0,0,0,0,0,0,0,0,0,0,0,0,0,0,0,0,0,0,0,0,0,0,0,0,0,0,0,0,0,0,0,0.0095,0.0095,0,0.0017,0.0016,0.0015,-0.0041,-0.0041,-0.0041,-0.0042,-0.0163,-0.0166,-0.0169,0,0,0,0,0,0,0,0,0,0,0,0,0,0.0154,0.0154,0.0095,0.0095,0.0094,0.0018,0.0016,0.0015,-0.0041,-0.0041,-0.0041,-0.0042,-0.0162,-0.0166,-0.0169,0,0,0,0,0,0,0,0,0,0,0,0,0,0.0106,0.0153,0.0096,0.0058,0.0054,0.0018,0.0016,0.0015,-0.0041,-0.0041,-0.0041,-0.0042,-0.0161,-0.0166,-0.017,-0.0188,0,0,-0.0183,-0.0185,0,0,0,0,0,0,0,0,0.0109,0.0104,0.0064,0.006,0.0056,-0.0001,-0.0008,-0.0055,-0.004,-0.0006,-0.0042,-0.0042,-0.0112,-0.012,-0.0136,-0.0194,-0.0199,-0.0184,-0.0187,-0.0188,-0.019,0,0,0,0,0,0,0,0.0113,0.0107,0.0063,0.0064,0.0058,0.0031,0.0024,-0.0017,-0.0058,-0.0009,-0.0013,-0.0019,-0.0115,-0.0131,-0.0139,-0.0201,-0.0184,-0.0188,-0.019,-0.0192,-0.029,-0.029,0,0,0,0,0,0,0.0128,0.011,0.0065,0.0061,0.0084,0.003,0.0022,0.0016,-0.0056,-0.0067,-0.0019,-0.0021,-0.0123,-0.0134,-0.0143,-0.0166,-0.0188,-0.0193,-0.0195,-0.029,-0.029,-0.029,0,0,0,0,0,0,0.013,0.0125,0.0068,0.0085,0.0076,0.003,0.0024,0.0015,-0.0001,-0.0063,-0.0075,-0.0025,-0.0124,-0.0137,-0.0172,-0.0172,-0.0195,-0.0199,-0.029,-0.029,-0.029,-0.0214,0,0,0,0,0,0,0.0132,0.0126,0.0128,0.0086,0.0076,0.0055,0.0024,0.0014,-0.0003,-0.0007,-0.0072,-0.0084,-0.0125,-0.0164,-0.0176,-0.0178,-0.0202,-0.029,-0.029,-0.029,-0.0217,-0.0212,-0.0207,0,0,0,0,0,0.0134,0.0144,0.0129,0.0123,0.008,0.0056,0.0048,0.0012,-0.0002,-0.0005,-0.0046,-0.0082,-0.0172,-0.0168,-0.0181,-0.0185,-0.029,-0.029,-0.029,-0.0219,-0.0213,-0.0207,0,0,0,0,0,0,0.017,0.0138,0.012,0.0119,0.0092,0.0047,0.0044,0.0019,-0.0016,-0.0019,-0.0079,-0.0093,-0.0125,-0.0164,-0.0157,-0.0213,-0.0239,-0.0241,-0.018,-0.0175,-0.017,-0.0139,-0.0206,0,0,0,0,0,0.018,0.0179,0.0141,0.0141,0.0131,0.0088,0.0075,0.0051,0.0015,-0.0,-0.0044,-0.0092,-0.0135,-0.016,-0.0201,-0.023,-0.0229,-0.0243,-0.0238,-0.0233,-0.0218,-0.0207,-0.0199,-0.0289,-0.0289,-0.0289,0,0,0.0194,0.0177,0.0175,0.0149,0.0125,0.0118,0.0079,0.0065,0.0057,-0.0008,-0.0029,-0.0075,-0.0138,-0.0169,-0.0187,-0.0201,-0.0206,-0.0233,-0.0229,-0.0215,-0.0206,-0.0197,-0.0188,-0.0289,-0.0289,-0.0289,0,0,0.0226,0.0207,0.0217,0.02,0.0173,0.0146,0.0146,0.0105,0.0085,0.006,0.0009,-0.0029,-0.0093,-0.0137,-0.0168,-0.0162,-0.0178,-0.0182,-0.0135,-0.0125,-0.0117,-0.0109,-0.0084,-0.0075,-0.0182,-0.0182,-0.0182,0,0.0244,0.0247,0.0216,0.022,0.0212,0.0164,0.017,0.0143,0.0096,0.0093,0.0065,-0.0008,-0.0076,-0.0105,-0.0117,-0.015,-0.0135,-0.0151,-0.0115,-0.0108,-0.0102,-0.0078,-0.0069,-0.0178,-0.0178,-0.0179,-0.0179,0,0.0279,0.0281,0.0288,0.0276,0.0263,0.0262,0.0223,0.0214,0.0185,0.016,0.0136,0.0059,0.0024,-0.0019,-0.0075,-0.0072,-0.0071,-0.0105,-0.0121,-0.0087,-0.0066,-0.0057,-0.0173,-0.0174,-0.0175,-0.0176,0,0,0.032,0.0314,0.0316,0.0327,0.0293,0.0293,0.0284,0.027,0.0304,0.0237,0.0278,0.0157,0.0135,0.0098,0.0031,0.0012,0.0044,-0.0027,-0.0028,0.0015,0.0094,0.0052,0.0056,0.0029,0.003,0.0031,0.0098,0,0.0356,0.0384,0.0365,0.0392,0.0403,0.0368,0.0381,0.0364,0.0353,0.0385,0.0302,0.0314,0.0175,0.0187,0.0136,0.0089,0.0067,0.003,0.0041,0.0042,0.0013,0.0064,0.0028,0.008,0.0105,0.0107,0.0108,0,0.0394,0.041,0.0443,0.0472,0.0477,0.0494,0.053,0.0539,0.0553,0.0557,0.0538,0.0499,0.0457,0.0353,0.0272,0.0264,0.0179,0.0123,0.0125,0.0066,0.0013,0.0045,0.0094,-0.0131,0.012,0.0119,0.0118,0,0.0444,0.0467,0.0502,0.0505,0.0527,0.0556,0.0578,0.0599,0.0667,0.0698,0.0783,0.0691,0.0723,0.0589,0.043,0.0377,0.0367,0.0286,0.0164,0.0161,0.0121,0.0111,-0.0035,0.0231,0.023,0.023,0.023,0,0.049,0.0523,0.0541,0.0565,0.066,0.0637,0.076,0.0776,0.0862,0.0996,0.0898,0.1002,0.079,0.0744,0.0542,0.0398,0.0455,0.0196,0.018,0.0145,0.0137,-0.0071,-0.0189,0.0233,0.0232,0.0232,0.0231,0,0.0552,0.0547,0.0611,0.0655,0.0692,0.0768,0.0913,0.1015,0.1073,0.1261,0.1299,0.1288,0.1221,0.0991,0.0816,0.0593,0.03,0.0348,0.0324,0.0301,-0.0059,-0.017,-0.0301,-0.0387,0.0239,0.0239,0.0238,0,0.0591,0.0623,0.0709,0.0787,0.0823,0.0944,0.1055,0.1126,0.1259,0.1448,0.1566,0.1563,0.1574,0.1293,0.089,0.0561,0.0325,0.0312,0.0165,-0.0065,-0.02,-0.0289,-0.0358,0.0154,0.0153,0.0152,0.0151,0,0.07,0.0724,0.0795,0.0951,0.1072,0.1212,0.1373,0.1509,0.1633,0.178,0.1967,0.1996,0.1723,0.1378,0.0908,0.0641,0.0144,0.0281,0.0054,-0.0267,-0.0379,-0.0473,0.0104,0.0143,0.0144,0.0144,0.0145,0.0145,0.0826,0.0903,0.1014,0.1163,0.1294,0.1477,0.1626,0.1787,0.2003,0.2229,0.2237,0.2294,0.1784,0.1126,0.0769,0.0049,0.0072,-0.0184,-0.0287,-0.0346,-0.0481,0.0079,0.0079,0.0079,0.008,0.008,0.008,0,0.1007,0.1092,0.1234,0.1417,0.157,0.1605,0.1847,0.1991,0.2233,0.2381,0.2502,0.224,0.1614,0.0965,0.0016,-0.0438,-0.0618,-0.0685,-0.0837,-0.0872,-0.0362,-0.0423,-0.0546,-0.0546,-0.0546,-0.0545,-0.0545,-0.0545,0.1133,0.1306,0.1358,0.1644,0.1757,0.1978,0.2111,0.2296,0.2426,0.2561,0.2545,0.2512,0.1953,0.0346,-0.073,-0.0961,-0.1279,-0.1349,-0.1465,-0.1166,-0.1128,-0.1093,-0.1181,-0.146,-0.1461,-0.1944,-0.195,-0.1953]}],[{"header":{"parameterUnit":"m.s-1","parameterCategory":2,"la1":30.2991,"la2":30.254,"lo1":-89.0895,"lo2":-89.0444,"dy":0.0017,"dx":0.0017,"nx":28,"ny":28,"refTime":"2025-02-08T09:00:00:Z","depth":"2","parameterNumber":2,"parameterNumberName":"U-component_of_CURRENTS"},"data":[0,0,0,0,0,0,0,0,0,0,0,0,0,0,0,0,0,0,0,0,0,0,0,0,0,0,0,0,0,0,0,0,0,0,0,0,0,0,0,0,0,0,0,0,0,0,0,0,0,0,0,0,0,0,0,0,0,0,0.2172,0.2173,0,0.2219,0.2219,0.2219,0.2229,0.2228,0.2228,0.2228,0.2249,0.2249,0.225,0,0,0,0,0,0,0,0,0,0,0,0,0,0.2095,0.2097,0.2172,0.2173,0.2173,0.2219,0.2219,0.222,0.2229,0.2228,0.2228,0.2228,0.2249,0.2249,0.225,0,0,0,0,0,0,0,0,0,0,0,0,0,0.2132,0.2097,0.2172,0.2185,0.2186,0.2219,0.2219,0.222,0.2229,0.2228,0.2228,0.2228,0.2248,0.2249,0.225,0.2264,0,0,0.2254,0.2254,0,0,0,0,0,0,0,0,0.213,0.2135,0.2182,0.2184,0.2186,0.2219,0.22,0.2234,0.2229,0.2211,0.2228,0.2228,0.2238,0.224,0.2247,0.2265,0.2266,0.2254,0.2255,0.2255,0.2255,0,0,0,0,0,0,0,0.2128,0.2133,0.2189,0.2183,0.2185,0.219,0.2194,0.2206,0.2224,0.2212,0.2214,0.2222,0.2238,0.2246,0.2248,0.2266,0.2254,0.2255,0.2256,0.2256,0.2346,0.2348,0,0,0,0,0,0,0.2126,0.2131,0.2187,0.219,0.2158,0.2191,0.2197,0.2207,0.2224,0.2227,0.2222,0.2222,0.2244,0.2246,0.2248,0.2309,0.2255,0.2256,0.2257,0.2345,0.2347,0.2349,0,0,0,0,0,0,0.2124,0.213,0.2186,0.2163,0.217,0.2193,0.2205,0.2208,0.2225,0.2232,0.2234,0.2236,0.2244,0.2247,0.2278,0.2308,0.2257,0.2258,0.2343,0.2345,0.2348,0.2403,0,0,0,0,0,0,0.2121,0.2129,0.214,0.2163,0.2171,0.2213,0.2206,0.221,0.2231,0.2231,0.2245,0.2246,0.2244,0.2277,0.228,0.2309,0.2259,0.2341,0.2344,0.2347,0.2399,0.2407,0.2414,0,0,0,0,0,0.2119,0.2132,0.214,0.2147,0.2184,0.2214,0.2219,0.2232,0.2232,0.2245,0.2261,0.2246,0.2299,0.2279,0.2282,0.2312,0.2339,0.2343,0.2347,0.2395,0.2405,0.2414,0,0,0,0,0,0,0.2102,0.2136,0.2144,0.2167,0.2193,0.2216,0.2231,0.224,0.2263,0.2267,0.2267,0.227,0.2311,0.2306,0.2284,0.2349,0.2317,0.2322,0.2354,0.2363,0.237,0.2398,0.226,0,0,0,0,0,0.2105,0.2128,0.2156,0.2177,0.219,0.2213,0.2228,0.2241,0.2263,0.2273,0.2286,0.2304,0.2329,0.234,0.2359,0.2391,0.2419,0.2414,0.2421,0.2428,0.2453,0.2531,0.2549,0.2361,0.2361,0.2361,0,0,0.2104,0.2127,0.2139,0.2176,0.2196,0.2224,0.2221,0.2253,0.2282,0.2272,0.2318,0.2332,0.2345,0.2387,0.2404,0.2385,0.2493,0.2433,0.2438,0.246,0.2537,0.2556,0.2572,0.2364,0.2363,0.2363,0,0,0.2116,0.2136,0.2159,0.2187,0.2226,0.224,0.2252,0.2287,0.2309,0.2351,0.236,0.2399,0.2422,0.2451,0.2462,0.2524,0.2533,0.2524,0.2582,0.2657,0.2674,0.2689,0.2736,0.2755,0.2525,0.2525,0.2525,0,0.2113,0.2147,0.217,0.2204,0.2231,0.2248,0.2281,0.2309,0.2353,0.239,0.2372,0.2457,0.2457,0.2529,0.2552,0.2542,0.2582,0.2542,0.2669,0.2684,0.2698,0.2743,0.2763,0.2528,0.2528,0.2527,0.2527,0,0.2145,0.2175,0.2193,0.224,0.2273,0.2304,0.2345,0.2387,0.241,0.2443,0.2523,0.254,0.2595,0.2597,0.2592,0.2697,0.269,0.2671,0.2646,0.2721,0.2763,0.2783,0.2533,0.2531,0.253,0.253,0,0,0.2126,0.2198,0.2204,0.2241,0.2296,0.2329,0.2389,0.2455,0.2515,0.2555,0.2639,0.2681,0.2707,0.2725,0.2731,0.279,0.2908,0.2781,0.2783,0.2829,0.3074,0.2986,0.2998,0.292,0.2924,0.2927,0.3058,0,0.214,0.2199,0.2238,0.2303,0.2337,0.2391,0.2444,0.2515,0.2574,0.266,0.2706,0.2782,0.2749,0.2792,0.2848,0.2906,0.2967,0.2874,0.2995,0.2999,0.2912,0.3021,0.2791,0.2883,0.3078,0.3081,0.3083,0,0.2154,0.2196,0.2254,0.2345,0.2367,0.2412,0.2525,0.2582,0.2701,0.2754,0.2845,0.2891,0.2999,0.2951,0.3094,0.3043,0.3074,0.31,0.3105,0.3024,0.2949,0.2842,0.2911,0.3116,0.3113,0.3111,0.3109,0,0.2125,0.2209,0.2256,0.2287,0.2386,0.2441,0.2499,0.2614,0.2691,0.2838,0.2931,0.3029,0.311,0.3178,0.3217,0.3189,0.3357,0.3316,0.3262,0.3255,0.3084,0.3054,0.3427,0.3427,0.3427,0.3426,0.3426,0,0.2118,0.2161,0.2251,0.2283,0.236,0.2439,0.2547,0.2624,0.2761,0.2855,0.2987,0.3075,0.318,0.3273,0.3285,0.3335,0.3413,0.3311,0.3303,0.3092,0.3064,0.3279,0.326,0.3431,0.343,0.3429,0.3428,0,0.2082,0.213,0.2203,0.2312,0.2347,0.2411,0.2563,0.2642,0.2791,0.293,0.2993,0.316,0.3279,0.3359,0.3461,0.3425,0.3471,0.3455,0.3186,0.3144,0.3305,0.3287,0.3453,0.3452,0.345,0.3449,0.3448,0,0.2073,0.2097,0.2212,0.2255,0.231,0.2416,0.2479,0.2625,0.2697,0.2947,0.2988,0.3192,0.3261,0.34,0.3387,0.3428,0.3462,0.3219,0.312,0.3342,0.3318,0.3302,0.3287,0.2913,0.2908,0.2904,0.29,0,0.2064,0.21,0.216,0.2228,0.2301,0.2384,0.2477,0.2535,0.2698,0.2821,0.2942,0.3043,0.3206,0.3139,0.321,0.3183,0.3198,0.3133,0.3477,0.2928,0.284,0.2813,0.2815,0.2862,0.2866,0.2869,0.2871,0.2872,0.2056,0.2087,0.2146,0.2198,0.2271,0.2309,0.2324,0.2423,0.2504,0.262,0.2757,0.2831,0.2913,0.2907,0.2844,0.2822,0.3025,0.2903,0.2914,0.293,0.2831,0.2744,0.2728,0.2731,0.2734,0.2736,0.2738,0,0.1998,0.2039,0.2105,0.2143,0.2151,0.2229,0.2274,0.2246,0.2258,0.2419,0.2489,0.2364,0.2382,0.2475,0.24,0.2424,0.2374,0.2325,0.2245,0.2287,0.2323,0.2188,0.1918,0.1915,0.1912,0.1909,0,0,0.1971,0.1978,0.1994,0.1984,0.2018,0.198,0.197,0.1955,0.2006,0.2009,0.2046,0.2255,0.2405,0.2115,0.211,0.2002,0.2113,0.1927,0.2595,0.2543,0.2574,0.2682,0.2526,0,0,0,0,0]},{"header":{"parameterUnit":"m.s-1","parameterCategory":2,"la1":30.2991,"la2":30.254,"lo1":-89.0895,"lo2":-89.0444,"dy":0.0017,"dx":0.0017,"nx":28,"ny":28,"refTime":"2025-02-08T09:00:00:Z","depth":"2","parameterNumber":3,"parameterNumberName":"V-component_of_CURRENTS"},"data":[0,0,0,0,0,0,0,0,0,0,0,0,0,0,0,0,0,0,0,0,0,0,0,0,0,0,0,0,0,0,0,0,0,0,0,0,0,0,0,0,0,0,0,0,0,0,0,0,0,0,0,0,0,0,0,0,0,0,-0.013,-0.0131,0,-0.0188,-0.0189,-0.019,-0.0234,-0.0234,-0.0234,-0.0234,-0.033,-0.0333,-0.0335,0,0,0,0,0,0,0,0,0,0,0,0,0,-0.0105,-0.0105,-0.013,-0.0131,-0.0131,-0.0188,-0.0189,-0.019,-0.0234,-0.0234,-0.0234,-0.0235,-0.033,-0.0332,-0.0335,0,0,0,0,0,0,0,0,0,0,0,0,0,-0.0135,-0.0105,-0.013,-0.0159,-0.0162,-0.0188,-0.0189,-0.019,-0.0233,-0.0234,-0.0234,-0.0235,-0.0329,-0.0332,-0.0335,-0.0348,0,0,-0.0346,-0.0347,0,0,0,0,0,0,0,0,-0.0134,-0.0137,-0.0154,-0.0157,-0.016,-0.0203,-0.0215,-0.0244,-0.0233,-0.0208,-0.0234,-0.0235,-0.029,-0.0297,-0.0308,-0.0353,-0.0357,-0.0346,-0.0348,-0.035,-0.0351,0,0,0,0,0,0,0,-0.0131,-0.0135,-0.0154,-0.0155,-0.0159,-0.0185,-0.019,-0.0221,-0.0247,-0.021,-0.0213,-0.0217,-0.0292,-0.0305,-0.0311,-0.0358,-0.0346,-0.0349,-0.0351,-0.0353,-0.0426,-0.0426,0,0,0,0,0,0,-0.0119,-0.0132,-0.0152,-0.0156,-0.0146,-0.0185,-0.019,-0.019,-0.0246,-0.0255,-0.0217,-0.0219,-0.0298,-0.0307,-0.0314,-0.0327,-0.035,-0.0353,-0.0355,-0.0426,-0.0426,-0.0426,0,0,0,0,0,0,-0.0118,-0.012,-0.015,-0.0145,-0.015,-0.0185,-0.0184,-0.0191,-0.0202,-0.0251,-0.026,-0.0221,-0.0299,-0.0309,-0.0338,-0.0331,-0.0355,-0.0358,-0.0426,-0.0426,-0.0426,-0.0355,0,0,0,0,0,0,-0.0117,-0.0119,-0.0115,-0.0144,-0.015,-0.0157,-0.0184,-0.0192,-0.0204,-0.0207,-0.0258,-0.0267,-0.03,-0.0332,-0.0341,-0.0336,-0.036,-0.0426,-0.0426,-0.0426,-0.0358,-0.0353,-0.0349,0,0,0,0,0,-0.0115,-0.0103,-0.0114,-0.0117,-0.0143,-0.0156,-0.0162,-0.0189,-0.0203,-0.0202,-0.0238,-0.0266,-0.0338,-0.0335,-0.0345,-0.0341,-0.0426,-0.0426,-0.0426,-0.036,-0.0354,-0.0349,0,0,0,0,0,0,-0.0089,-0.0108,-0.012,-0.0114,-0.0131,-0.0163,-0.0165,-0.0184,-0.0211,-0.0215,-0.0264,-0.0275,-0.0299,-0.033,-0.0326,-0.0363,-0.0387,-0.0389,-0.0333,-0.0328,-0.0323,-0.0304,-0.0363,0,0,0,0,0,-0.0081,-0.0078,-0.0101,-0.0097,-0.0102,-0.0133,-0.0142,-0.0159,-0.0186,-0.0199,-0.0234,-0.0273,-0.0306,-0.0324,-0.0358,-0.0376,-0.0402,-0.0381,-0.0376,-0.0372,-0.0364,-0.0396,-0.0393,-0.0425,-0.0425,-0.0425,0,0,-0.007,-0.008,-0.0079,-0.0092,-0.0108,-0.0105,-0.0139,-0.0146,-0.0146,-0.0205,-0.0217,-0.0258,-0.0308,-0.0329,-0.0342,-0.0353,-0.0377,-0.0372,-0.0367,-0.0362,-0.0395,-0.0392,-0.0389,-0.0425,-0.0425,-0.0425,0,0,-0.0042,-0.0054,-0.0041,-0.0049,-0.0065,-0.0082,-0.008,-0.0108,-0.0122,-0.0139,-0.0183,-0.0216,-0.0265,-0.0297,-0.0321,-0.0311,-0.0352,-0.0325,-0.0285,-0.0315,-0.0313,-0.0311,-0.0336,-0.0337,-0.0322,-0.0321,-0.0321,0,-0.0028,-0.0014,-0.0039,-0.0028,-0.0028,-0.0067,-0.005,-0.0069,-0.0103,-0.011,-0.0133,-0.0204,-0.0248,-0.0273,-0.0274,-0.0299,-0.0322,-0.0299,-0.0308,-0.0306,-0.0306,-0.0332,-0.0334,-0.0318,-0.0318,-0.0319,-0.0319,0,0.001,0.002,0.0029,0.0031,0.0027,0.0034,0.001,0.0002,-0.0022,-0.0046,-0.0075,-0.0137,-0.0177,-0.02,-0.0237,-0.0252,-0.0272,-0.0297,-0.0317,-0.0298,-0.0328,-0.0331,-0.0313,-0.0314,-0.0315,-0.0316,0,0,0.0045,0.0055,0.0058,0.0073,0.006,0.0065,0.0067,0.0059,0.0069,0.0019,0.0026,-0.005,-0.0086,-0.0115,-0.0167,-0.02,-0.0219,-0.0241,-0.0244,-0.0256,-0.0282,-0.0313,-0.032,-0.0245,-0.0245,-0.0245,-0.0304,0,0.0083,0.0125,0.0114,0.0151,0.0172,0.0143,0.0154,0.014,0.0116,0.0113,0.0043,0.0027,-0.0052,-0.0063,-0.0113,-0.0187,-0.0225,-0.0201,-0.0308,-0.0311,-0.0332,-0.0323,-0.0293,-0.0344,-0.0307,-0.0308,-0.0308,0,0.0126,0.015,0.0196,0.0223,0.023,0.0245,0.026,0.0264,0.024,0.0225,0.0184,0.0134,0.0077,0.0014,-0.0114,-0.0094,-0.0182,-0.0247,-0.0252,-0.0305,-0.0347,-0.036,-0.0351,-0.0314,-0.0313,-0.0313,-0.0313,0,0.0171,0.0207,0.0249,0.0257,0.0279,0.0298,0.0309,0.0299,0.0325,0.0303,0.0331,0.0229,0.021,0.008,-0.0075,-0.0087,-0.0211,-0.0245,-0.0357,-0.036,-0.0368,-0.0372,-0.0332,-0.0332,-0.0331,-0.0331,-0.0331,0,0.0217,0.0251,0.0278,0.0302,0.0366,0.0356,0.0417,0.0412,0.0431,0.0473,0.0399,0.0405,0.0228,0.013,-0.0032,-0.0204,-0.0184,-0.0346,-0.0377,-0.0344,-0.0344,-0.0348,-0.0349,-0.0334,-0.0333,-0.0333,-0.0332,0,0.0258,0.0271,0.0327,0.0368,0.039,0.0436,0.0507,0.0551,0.0562,0.062,0.0629,0.0551,0.0421,0.0237,0.0029,-0.0126,-0.03,-0.0369,-0.0317,-0.0342,-0.0437,-0.0434,-0.0487,-0.0489,-0.049,-0.0491,-0.0492,0,0.028,0.0312,0.0385,0.0432,0.0456,0.0527,0.0585,0.0613,0.0651,0.0697,0.072,0.0646,0.0577,0.0273,-0.0009,-0.0275,-0.0312,-0.0423,-0.045,-0.0428,-0.0453,-0.0448,-0.0443,-0.0432,-0.0432,-0.0432,-0.0433,0,0.0323,0.0347,0.0399,0.0498,0.0569,0.0654,0.0721,0.0788,0.0819,0.0874,0.0888,0.0853,0.0584,0.0313,-0.0034,-0.0227,-0.038,-0.0438,-0.0423,-0.0399,-0.0381,-0.0404,-0.04,-0.0435,-0.0435,-0.0435,-0.0435,-0.0434,0.035,0.0394,0.0461,0.0551,0.064,0.0742,0.0826,0.0903,0.0991,0.1068,0.1,0.0975,0.0668,0.0237,-0.0085,-0.04,-0.04,-0.051,-0.0506,-0.0503,-0.0488,-0.0474,-0.0542,-0.0542,-0.0543,-0.0543,-0.0543,0,0.0346,0.0399,0.0504,0.0597,0.0692,0.0746,0.0878,0.0958,0.1066,0.1158,0.1168,0.0915,0.0626,0.0301,-0.0164,-0.0468,-0.0485,-0.0556,-0.0503,-0.0499,-0.0496,-0.0479,-0.0532,-0.0532,-0.0533,-0.0533,0,0,0.034,0.0407,0.046,0.0595,0.0683,0.0821,0.0911,0.1046,0.1138,0.123,0.1241,0.1171,0.076,0.0431,0.0016,-0.0242,-0.0299,-0.0301,-0.0282,-0.0167,-0.016,-0.0447,-0.0415,0,0,0,0,0]}],[{"header":{"parameterUnit":"m.s-1","parameterCategory":2,"la1":30.2991,"la2":30.254,"lo1":-89.0895,"lo2":-89.0444,"dy":0.0017,"dx":0.0017,"nx":28,"ny":28,"refTime":"2025-02-08T09:00:00:Z","depth":"4","parameterNumber":2,"parameterNumberName":"U-component_of_CURRENTS"},"data":[0,0,0,0,0,0,0,0,0,0,0,0,0,0,0,0,0,0,0,0,0,0,0,0,0,0,0,0,0,0,0,0,0,0,0,0,0,0,0,0,0,0,0,0,0,0,0,0,0,0,0,0,0,0,0,0,0,0,0.1393,0.1394,0,0.1448,0.1448,0.1448,0.1496,0.1497,0.1498,0.1499,0.1554,0.1555,0.1556,0,0,0,0,0,0,0,0,0,0,0,0,0,0.1307,0.1308,0.1393,0.1394,0.1395,0.1448,0.1448,0.1449,0.1496,0.1497,0.1498,0.1499,0.1554,0.1555,0.1556,0,0,0,0,0,0,0,0,0,0,0,0,0,0.1349,0.1309,0.1393,0.1427,0.1431,0.1447,0.1448,0.1449,0.1496,0.1497,0.1498,0.15,0.1554,0.1555,0.1556,0.1539,0,0,0.156,0.156,0,0,0,0,0,0,0,0,0.1346,0.1351,0.1421,0.1425,0.1429,0.1469,0.1438,0.148,0.1496,0.1468,0.1499,0.15,0.1527,0.153,0.1534,0.1542,0.1544,0.156,0.156,0.1561,0.1561,0,0,0,0,0,0,0,0.1343,0.1349,0.1412,0.1422,0.1427,0.1432,0.1439,0.1446,0.1488,0.1471,0.1475,0.1485,0.1529,0.1533,0.1536,0.1545,0.156,0.1561,0.1561,0.1562,0.164,0.1641,0,0,0,0,0,0,0.1342,0.1347,0.141,0.1414,0.1393,0.1433,0.1441,0.1453,0.1488,0.1496,0.1484,0.1487,0.153,0.1534,0.1538,0.161,0.1561,0.1562,0.1562,0.1639,0.164,0.1642,0,0,0,0,0,0,0.134,0.1347,0.1408,0.1383,0.1392,0.1433,0.1446,0.1453,0.1489,0.1499,0.1506,0.1517,0.1531,0.1536,0.1573,0.1609,0.1562,0.1563,0.1637,0.1639,0.1641,0.1696,0,0,0,0,0,0,0.1337,0.1346,0.1365,0.1383,0.1393,0.1438,0.1446,0.1453,0.1492,0.1498,0.1528,0.1533,0.1533,0.1571,0.1574,0.161,0.1564,0.1635,0.1638,0.164,0.1692,0.1699,0.1706,0,0,0,0,0,0.1334,0.1349,0.1365,0.1374,0.1414,0.144,0.1445,0.1476,0.1493,0.1512,0.1536,0.1534,0.159,0.1573,0.1576,0.1613,0.1634,0.1637,0.164,0.1689,0.1698,0.1706,0,0,0,0,0,0,0.1322,0.1356,0.1374,0.14,0.143,0.1449,0.1473,0.1491,0.1524,0.1538,0.1546,0.1552,0.1596,0.1596,0.1577,0.1644,0.1614,0.1618,0.165,0.1659,0.1665,0.1664,0.1565,0,0,0,0,0,0.1327,0.135,0.1382,0.1406,0.1424,0.1454,0.1473,0.1495,0.1521,0.1538,0.1561,0.1585,0.1605,0.1626,0.1638,0.1673,0.1682,0.1701,0.1708,0.1714,0.1715,0.176,0.1771,0.1652,0.1652,0.1652,0,0,0.1329,0.1352,0.1366,0.1406,0.1432,0.1457,0.1469,0.1508,0.1534,0.1537,0.1589,0.1607,0.1618,0.1658,0.1679,0.1669,0.1755,0.1718,0.1722,0.1721,0.1765,0.1776,0.1786,0.1654,0.1654,0.1654,0,0,0.1332,0.1368,0.1386,0.1414,0.146,0.1478,0.1496,0.1536,0.1567,0.1609,0.1621,0.1664,0.1695,0.1716,0.1726,0.1777,0.1783,0.1789,0.1831,0.1875,0.1885,0.1894,0.1929,0.1941,0.18,0.18,0.18,0,0.1336,0.1362,0.1396,0.1421,0.1448,0.149,0.1515,0.1546,0.1595,0.1626,0.1636,0.1709,0.1721,0.1771,0.1793,0.1793,0.1817,0.1798,0.1884,0.1893,0.1901,0.1935,0.1947,0.1803,0.1802,0.1802,0.1802,0,0.1347,0.1379,0.1395,0.144,0.1472,0.1503,0.1549,0.1595,0.1638,0.1669,0.1742,0.1768,0.1816,0.1831,0.1828,0.1898,0.1896,0.1882,0.1862,0.1916,0.1949,0.196,0.1807,0.1806,0.1805,0.1804,0,0,0.132,0.1389,0.1397,0.1425,0.1488,0.1512,0.1569,0.1627,0.1679,0.1737,0.1805,0.1849,0.1884,0.1898,0.1916,0.1956,0.2037,0.1952,0.1953,0.1985,0.214,0.2015,0.2016,0.2045,0.2047,0.2049,0.2143,0,0.1321,0.1366,0.1402,0.145,0.1478,0.154,0.159,0.1653,0.1716,0.1793,0.1846,0.1916,0.1904,0.1952,0.1989,0.2029,0.2069,0.2013,0.2084,0.2086,0.1967,0.2025,0.2056,0.2151,0.2154,0.2156,0.2157,0,0.1313,0.1347,0.1393,0.1467,0.1488,0.153,0.1629,0.1682,0.1791,0.1847,0.1928,0.1974,0.2059,0.2039,0.2135,0.2106,0.2127,0.2147,0.2151,0.202,0.1981,0.2084,0.2178,0.2176,0.2175,0.2173,0.2172,0,0.1269,0.1339,0.1378,0.1403,0.1492,0.154,0.1602,0.1706,0.1768,0.1901,0.1967,0.2058,0.2134,0.2175,0.2218,0.2196,0.231,0.2282,0.2186,0.2178,0.2238,0.2227,0.234,0.234,0.2339,0.2339,0.2339,0,0.1241,0.1274,0.137,0.1388,0.1456,0.1533,0.162,0.17,0.1823,0.1899,0.2002,0.2072,0.2176,0.2246,0.2258,0.2259,0.2347,0.2201,0.2195,0.226,0.225,0.2247,0.2235,0.2343,0.2342,0.2341,0.2341,0,0.118,0.1241,0.1289,0.1391,0.1434,0.1488,0.1626,0.1688,0.1819,0.1927,0.198,0.2123,0.2217,0.2287,0.2373,0.2308,0.2322,0.2296,0.2375,0.2371,0.2152,0.2142,0.2202,0.2198,0.2195,0.2193,0.219,0,0.1149,0.1168,0.1277,0.1317,0.137,0.1467,0.1533,0.1675,0.1738,0.1932,0.197,0.2123,0.2199,0.2221,0.2298,0.2325,0.2291,0.2282,0.2194,0.215,0.214,0.2134,0.2128,0.2186,0.2185,0.2184,0.2183,0,0.1078,0.1128,0.1168,0.125,0.1324,0.1396,0.1503,0.154,0.1702,0.1839,0.1924,0.1985,0.2089,0.2148,0.2191,0.2195,0.2278,0.2249,0.2254,0.2172,0.2131,0.2122,0.212,0.2173,0.2174,0.2175,0.2176,0,0.1025,0.1039,0.1098,0.1166,0.1249,0.1293,0.1367,0.145,0.1533,0.1745,0.1771,0.1928,0.2069,0.2083,0.2116,0.2122,0.2085,0.2004,0.2021,0.2034,0.1933,0.1854,0.1815,0,0,0,0,0,0.0962,0.0966,0.1013,0.1068,0.1146,0.1197,0.1326,0.1404,0.1565,0.1583,0.1673,0.1759,0.1837,0.1917,0.189,0.2038,0.2086,0.1998,0.1998,0.2114,0.2126,0.2022,0,0,0,0,0,0,0.0914,0.0944,0.0967,0.0967,0.0994,0.1065,0.1143,0.126,0.1278,0.1454,0.1507,0.1644,0.1744,0.1829,0.1851,0.1876,0.1839,0.2099,0.2095,0.2107,0.2118,0.2128,0.2025,0,0,0,0,0]},{"header":{"parameterUnit":"m.s-1","parameterCategory":2,"la1":30.2991,"la2":30.254,"lo1":-89.0895,"lo2":-89.0444,"dy":0.0017,"dx":0.0017,"nx":28,"ny":28,"refTime":"2025-02-08T09:00:00:Z","depth":"4","parameterNumber":3,"parameterNumberName":"V-component_of_CURRENTS"},"data":[0,0,0,0,0,0,0,0,0,0,0,0,0,0,0,0,0,0,0,0,0,0,0,0,0,0,0,0,0,0,0,0,0,0,0,0,0,0,0,0,0,0,0,0,0,0,0,0,0,0,0,0,0,0,0,0,0,0,-0.0078,-0.0079,0,-0.0113,-0.0114,-0.0114,-0.0147,-0.0148,-0.0148,-0.0148,-0.0209,-0.021,-0.0211,0,0,0,0,0,0,0,0,0,0,0,0,0,-0.0071,-0.0071,-0.0078,-0.0079,-0.0079,-0.0113,-0.0114,-0.0114,-0.0147,-0.0148,-0.0148,-0.0148,-0.0208,-0.021,-0.0211,0,0,0,0,0,0,0,0,0,0,0,0,0,-0.0087,-0.0071,-0.0078,-0.0099,-0.0102,-0.0113,-0.0114,-0.0114,-0.0147,-0.0148,-0.0148,-0.0149,-0.0208,-0.021,-0.0211,-0.0212,0,0,-0.0217,-0.0218,0,0,0,0,0,0,0,0,-0.0086,-0.0087,-0.0096,-0.0098,-0.01,-0.0126,-0.0133,-0.0148,-0.0147,-0.013,-0.0148,-0.0149,-0.0183,-0.0187,-0.0192,-0.0215,-0.0217,-0.0217,-0.0218,-0.0219,-0.022,0,0,0,0,0,0,0,-0.0085,-0.0086,-0.0093,-0.0096,-0.0099,-0.0117,-0.012,-0.0136,-0.0154,-0.0132,-0.0134,-0.0137,-0.0184,-0.019,-0.0194,-0.0218,-0.0217,-0.0219,-0.022,-0.0221,-0.0255,-0.0255,0,0,0,0,0,0,-0.0077,-0.0085,-0.0092,-0.0094,-0.0094,-0.0117,-0.012,-0.0118,-0.0153,-0.0159,-0.0136,-0.0138,-0.0187,-0.0192,-0.0196,-0.0198,-0.0219,-0.0221,-0.0222,-0.0255,-0.0255,-0.0255,0,0,0,0,0,0,-0.0077,-0.0077,-0.009,-0.009,-0.0093,-0.0116,-0.0113,-0.0118,-0.0127,-0.0156,-0.0163,-0.0141,-0.0187,-0.0194,-0.0208,-0.0201,-0.0222,-0.0224,-0.0256,-0.0255,-0.0255,-0.0203,0,0,0,0,0,0,-0.0076,-0.0077,-0.0074,-0.0089,-0.0093,-0.0092,-0.0113,-0.0118,-0.0127,-0.013,-0.0162,-0.0168,-0.0188,-0.0205,-0.021,-0.0204,-0.0225,-0.0256,-0.0256,-0.0255,-0.0205,-0.0201,-0.0197,0,0,0,0,0,-0.0076,-0.0065,-0.0074,-0.0075,-0.0088,-0.0091,-0.0095,-0.0114,-0.0127,-0.0125,-0.0148,-0.0167,-0.0206,-0.0206,-0.0212,-0.0206,-0.0256,-0.0256,-0.0255,-0.0207,-0.0202,-0.0197,0,0,0,0,0,0,-0.0059,-0.0068,-0.0078,-0.007,-0.0079,-0.0097,-0.0097,-0.0111,-0.0127,-0.0132,-0.0163,-0.017,-0.0181,-0.0201,-0.02,-0.0216,-0.0235,-0.0236,-0.0196,-0.0192,-0.0188,-0.0173,-0.0227,0,0,0,0,0,-0.0054,-0.0049,-0.0062,-0.0056,-0.0059,-0.0079,-0.0084,-0.0095,-0.0111,-0.0119,-0.0142,-0.0165,-0.0182,-0.0192,-0.0211,-0.0218,-0.0253,-0.0219,-0.0215,-0.0212,-0.0204,-0.0253,-0.0253,-0.0253,-0.0253,-0.0253,0,0,-0.0046,-0.005,-0.0049,-0.0053,-0.0063,-0.0055,-0.0083,-0.0086,-0.0079,-0.0123,-0.0124,-0.0153,-0.0182,-0.0189,-0.0196,-0.0205,-0.0232,-0.0211,-0.0208,-0.0202,-0.0252,-0.0252,-0.0252,-0.0253,-0.0253,-0.0253,0,0,-0.0023,-0.0032,-0.0019,-0.0021,-0.003,-0.0039,-0.0038,-0.0054,-0.0062,-0.0068,-0.0098,-0.0119,-0.0146,-0.0163,-0.0176,-0.0162,-0.0211,-0.0172,-0.014,-0.0187,-0.0187,-0.0188,-0.0241,-0.0247,-0.017,-0.017,-0.017,0,-0.0015,0.0002,-0.0016,-0.0002,0.0002,-0.0028,-0.0009,-0.0018,-0.0038,-0.0042,-0.0062,-0.0107,-0.0131,-0.0142,-0.0136,-0.0153,-0.0193,-0.0153,-0.0182,-0.0183,-0.0185,-0.0239,-0.0246,-0.0167,-0.0167,-0.0168,-0.0168,0,0.002,0.0033,0.0041,0.005,0.0052,0.0062,0.0051,0.0047,0.0029,0.0012,-0.0009,-0.005,-0.0077,-0.009,-0.0107,-0.0126,-0.0156,-0.0172,-0.0192,-0.0182,-0.024,-0.0248,-0.0163,-0.0164,-0.0165,-0.0166,0,0,0.0042,0.0062,0.0065,0.0083,0.0082,0.0091,0.0102,0.0102,0.0104,0.007,0.0063,0.003,-0.0006,-0.0023,-0.0057,-0.0094,-0.0142,-0.0133,-0.0136,-0.0182,-0.0257,-0.0231,-0.0239,-0.0168,-0.0169,-0.017,-0.0295,0,0.0075,0.0117,0.0117,0.0157,0.0178,0.0163,0.0177,0.017,0.0147,0.0129,0.008,0.0056,0.0023,0.0003,-0.0037,-0.0117,-0.016,-0.0107,-0.0262,-0.0267,-0.0243,-0.0246,-0.0173,-0.0302,-0.0304,-0.0305,-0.0306,0,0.0109,0.0135,0.0182,0.0216,0.0223,0.0241,0.0252,0.0258,0.0226,0.0205,0.0164,0.0113,0.006,0.0026,-0.0103,-0.0071,-0.0153,-0.0219,-0.0226,-0.0223,-0.0256,-0.0314,-0.0322,-0.0321,-0.032,-0.0319,-0.0318,0,0.0137,0.0182,0.0223,0.0234,0.0264,0.0282,0.0293,0.0278,0.0283,0.0243,0.0226,0.0151,0.0104,-0.0002,-0.0128,-0.0125,-0.0281,-0.0298,-0.0356,-0.0356,-0.0366,-0.0364,-0.039,-0.039,-0.039,-0.0389,-0.0389,0,0.0173,0.0206,0.024,0.0263,0.0312,0.0316,0.0348,0.0345,0.0329,0.0333,0.0262,0.0237,0.0093,-0.0011,-0.0126,-0.0263,-0.0285,-0.0349,-0.0382,-0.0342,-0.0336,-0.0373,-0.0369,-0.0394,-0.0393,-0.0392,-0.0391,0,0.0192,0.0215,0.0265,0.0308,0.0326,0.0356,0.0391,0.0406,0.0388,0.0386,0.0374,0.0284,0.0159,0.0009,-0.0173,-0.0255,-0.0391,-0.0436,-0.0386,-0.0415,-0.0441,-0.0433,-0.0516,-0.0516,-0.0516,-0.0516,-0.0516,0,0.0204,0.0231,0.0295,0.0323,0.0345,0.039,0.0421,0.0433,0.0448,0.0418,0.0418,0.0304,0.0232,-0.0002,-0.0163,-0.0383,-0.0406,-0.0486,-0.0452,-0.0427,-0.0452,-0.0444,-0.0436,-0.0516,-0.0516,-0.0516,-0.0516,0,0.0216,0.0237,0.0275,0.034,0.0384,0.0441,0.0485,0.0507,0.0518,0.05,0.0464,0.0345,0.0204,0.0022,-0.015,-0.0306,-0.0437,-0.0487,-0.0488,-0.0457,-0.0429,-0.0451,-0.0444,-0.0516,-0.0516,-0.0516,-0.0516,0,0.0213,0.0238,0.0285,0.0348,0.0405,0.0472,0.0503,0.0532,0.0551,0.0532,0.0517,0.037,0.028,0.006,-0.0099,-0.0246,-0.0282,-0.0327,-0.0337,-0.0339,-0.024,-0.0175,-0.0212,0,0,0,0,0,0.0205,0.0236,0.0288,0.0361,0.0424,0.0469,0.0534,0.0559,0.0581,0.0572,0.0551,0.0431,0.0211,0.0107,-0.0033,-0.0117,-0.0325,-0.0289,-0.0386,-0.0517,-0.0517,-0.0427,0,0,0,0,0,0,0.0194,0.0237,0.0281,0.0363,0.0419,0.0494,0.0546,0.0567,0.0568,0.0566,0.0456,0.0399,0.0182,0.0296,-0.0035,-0.0083,-0.0163,-0.0396,-0.0398,-0.0517,-0.0517,-0.0517,-0.0425,0,0,0,0,0]}]]